Location: Bukit Setapoh
(2.2500°N, 113.8000°E)
Time: 00:47:40
(UTC+00:00)

CZ-2C R/B - Pass Details

Date: 25 July 2021
Orbit: 388 x 578 km, 35.0° (Epoch: 22 September)

Event Time Altitude Azimuth Distance (km) Brightness Sun altitude
Rises 11:34:51 0° 297° (WNW) 2,521 6.6 -14.1°
Reaches altitude 10° 11:37:01 10° 292° (WNW) 1,679 5.2 -14.7°
Maximum altitude 11:40:45 47° 217° (SW) 684 1.9 -15.5°
Enters shadow 11:43:01 23° 153° (SSE) 1,164 2.5 -16.0°
